Tracking 19832 objects as of 24-Aug-2019
HD Live streaming from Space Station
objects crossing your sky now

COSMOS 2251 DEB

Track COSMOS 2251 DEB now!
10-day predictions


NORAD ID: 35462
Int'l Code: 1993-036ALG
Perigee: 767.6 km
Apogee: 925.0 km
Inclination: 74.0 °
Period: 101.7 minutes
Semi major axis: 7217 km
RCS: 0.0133 m2 (small)
Launch date: June 16, 1993
Source: Commonwealth of Independent States (former USSR) (CIS)
Launch site: PLESETSK MISSILE AND SPACE COMPLEX (PKMTR)

Note: This is SATELLITE DEBRIS
aabbcc
Your satellite tracking list
Your tracking list is empty




NASA's NSSDC Master Catalog

Two Line Element Set (TLE):
1 35462U 93036ALG 19235.18080148 +.00000215 +00000-0 +11536-3 0  9998
2 35462 074.0433 065.9976 0109032 294.1319 064.8450 14.15924160336898
Source of the keplerian elements: AFSPC